Location: Newark
(49.5647°N, 8.2922°E)
Time: 07:45:35
(UTC+00:00)

Transit 2A - Pass Details

Date: 26 February 2020
Orbit: 597 x 962 km, 66.7° (Epoch: 08 April)

Event Time Altitude Azimuth Distance (km) Brightness Sun altitude
Rises 15:09:13 0° 297° (WNW) 2,888 9.4 16.0°
Reaches altitude 10° 15:13:29 10° 336° (NNW) 2,046 8.2 15.4°
Maximum altitude 15:14:32 11° 350° (N) 2,021 8.0 15.3°
Drops below altitude 10° 15:15:35 10° 3° (N) 2,086 8.0 15.2°
Sets 15:20:09 0° 42° (NE) 3,103 8.5 14.5°
